Temperature
12 12 12 12 12 12 12 12 12 12 12 12 11 11 11 11 11 11 11 11 10 10 10 10 10 10 10 9 9 9 10 9 9 10 10 9 9 9 9 9 9 9 9
12 12 12 12 12 12 12 12 12 12 12 11 11 11 11 11 11 11 10 10 10 10 10 10 10 9 9 9 9 9 9 9 9 9 9 9 9 9 9 9 9 9 9
11 12 12 12 12 12 12 12 12 11 11 11 11 11 11 11 11 10 10 10 10 10 10 10 10 9 9 9 9 9 9 9 9 9 9 9 9 8 8 8 8 8 8
11 11 11 11 11 11 11 11 11 11 11 11 11 11 10 10 10 10 10 10 9 9 9 9 9 9 9 9 8 8 8 8 8 8 8 8 8 8 8 8 8 8 8
11 11 11 11 11 11 11 11 11 11 11 11 11 10 10 10 10 10 10 9 9 9 9 9 9 9 9 8 8 8 8 8 8 8 8 8 8 8 8 8 7 7 7
10 10 10 10 10 10 10 10 10 10 10 10 10 10 10 10 10 9 9 9 9 9 9 8 8 8 8 8 8 8 8 7 7 7 7 7 7 7 7 7 7 7 7
10 10 10 10 10 10 10 10 10 10 10 10 9 9 9 9 9 9 9 9 8 8 8 8 8 8 8 8 8 7 7 7 7 7 7 7 7 7 7 7 7 7 7
9 9 9 9 9 9 9 9 9 9 9 9 9 9 8 8 8 8 8 8 8 8 7 7 7 7 7 7 7 7 7 7 7 7 7 7 7 7 7 7 6 6 6
9 9 9 9 9 9 9 9 9 9 9 8 8 8 8 7 7 8 8 8 7 7 7 7 7 7 7 7 7 7 7 7 6 6 6 6 6 6 6 6 6 6 6
8 8 8 8 9 9 9 9 9 9 8 8 8 8 8 7 7 6 7 7 7 7 6 6 6 6 6 6 6 6 6 6 6 6 6 6 6 6 6 6 6 6 5
8 8 8 8 8 8 8 8 8 8 8 8 8 7 7 7 7 6 6 6 6 6 6 6 6 6 6 6 6 6 6 6 6 6 6 6 6 6 6 5 5 5 5
7 7 8 8 8 8 8 8 8 8 8 7 7 7 7 6 6 6 6 5 6 6 6 6 6 5 5 5 5 5 5 5 5 5 5 5 5 5 5 5 5 5 5
7 7 7 7 7 7 7 7 7 7 7 7 7 7 6 6 6 6 5 5 5 5 5 5 5 5 5 5 5 5 5 5 5 5 5 5 5 5 5 5 5 5 4
7 7 7 7 7 7 7 7 7 7 7 6 6 6 6 6 6 5 5 5 4 4 4 5 5 5 5 5 4 4 4 4 4 4 4 4 4 4 4 4 4 4 4
6 6 6 6 6 6 6 6 6 6 6 6 6 6 5 5 5 5 5 5 4 3 3 4 4 4 4 4 4 4 4 4 4 4 4 4 4 4 4 4 4 4 4
5 6 6 6 6 6 6 6 6 5 5 5 5 5 5 5 5 5 5 4 4 4 3 4 4 4 4 3 3 3 3 4 4 4 4 4 4 4 3 3 3 3 3
5 5 5 5 5 5 5 5 5 5 5 5 5 5 5 4 4 4 4 4 4 3 3 3 3 3 3 3 3 3 3 3 3 3 3 3 3 3 3 3 3 3 3
5 4 4 4 5 5 5 5 5 5 4 4 4 4 4 4 4 4 4 4 3 3 3 3 3 3 3 3 3 3 3 3 3 3 3 3 3 3 2 2 2 2 2
4 4 4 4 4 4 4 4 4 4 4 4 4 4 4 4 3 3 3 3 3 3 2 2 2 2 2 2 2 2 2 2 2 2 2 2 2 2 2 2 2 2 2
4 4 4 4 4 4 4 4 4 4 4 3 3 3 3 3 3 3 3 2 2 2 2 2 2 2 2 1 1 1 2 2 2 2 2 2 2 2 2 2 1 1 1
3 3 3 3 3 3 3 3 3 3 3 3 3 3 3 3 3 2 2 2 2 2 2 2 1 1 1 1 1 1 1 1 1 1 1 1 1 1 1 1 1 1 1
3 3 3 3 3 3 3 3 3 3 3 3 2 2 2 2 2 2 2 2 1 1 1 1 1 1 1 1 0 0 -0 -0 -0 0 1 1 1 1 1 1 1 0 0
3 3 3 2 2 2 2 2 2 2 2 2 2 2 2 2 2 2 1 1 1 1 1 1 1 1 1 0 0 -0 -0 -0 -1 -0 -0 0 0 0 0 0 0 -0 -0
2 2 2 2 2 2 2 2 2 2 1 2 2 2 2 2 1 1 1 1 1 1 1 0 0 0 0 -0 -0 -1 -1 -1 -1 -1 -1 -1 -0 -0 -0 -0 -0 -0 -1
2 2 2 2 2 1 1 1 1 1 1 1 1 1 1 1 1 1 1 1 1 1 0 -0 -0 -0 -0 -1 -1 -1 -1 -1 -1 -1 -1 -2 -1 -1 -0 -1 -1 -1 -1
1 1 1 1 1 1 1 1 1 1 1 1 1 1 1 1 1 0 0 0 0 0 -0 -0 -1 -1 -1 -1 -1 -1 -1 -2 -2 -2 -2 -2 -2 -2 -2 -1 -1 -1 -1
Wind_Speed
4 3 3 3 3 3 3 2 2 2 2 2 2 2 2 2 2 2 2 2 2 1 1 0 0 1 1 1 1 2 3 3 3 3 3 4 4 4 5 5 6 6 6
5 4 3 3 3 3 3 3 2 2 2 1 1 2 2 2 2 2 2 2 1 1 0 1 1 0 1 1 1 2 2 2 3 3 4 4 5 5 6 6 7 7 7
7 5 3 2 2 3 4 4 3 3 2 2 1 1 1 1 2 2 2 1 1 1 1 1 1 1 1 1 1 2 3 3 3 4 4 5 5 6 6 7 7 7 7
7 6 4 2 3 4 3 3 3 2 2 1 1 0 1 0 1 2 2 2 1 1 1 1 1 2 2 2 2 3 3 4 4 5 5 5 6 6 7 7 7 7 7
8 6 4 3 4 3 2 3 2 3 2 1 1 1 1 1 0 2 2 2 1 1 1 0 1 2 2 3 4 4 4 5 5 6 6 6 7 7 7 7 8 8 8
7 6 4 3 4 3 2 3 3 2 2 2 2 2 2 1 1 1 1 1 1 1 1 1 1 2 3 4 5 5 6 6 6 7 7 7 7 8 8 8 7 7 7
7 6 4 3 3 3 3 4 4 3 2 2 2 2 3 2 2 1 1 2 2 1 1 1 1 1 2 4 5 6 7 8 8 8 9 8 8 9 9 9 8 7 7
7 6 5 4 4 3 3 4 4 3 2 2 2 2 1 2 2 2 1 1 1 2 1 1 1 1 2 3 4 6 7 8 9 9 9 9 9 10 10 9 9 8 7
6 6 6 5 4 4 4 4 4 4 3 1 1 3 3 2 1 2 2 1 1 1 1 1 1 2 2 3 4 5 6 8 9 9 10 10 10 10 9 9 9 8 8
5 6 6 5 4 4 4 4 4 3 4 3 1 0 1 2 2 1 2 2 2 1 1 1 1 2 3 3 4 5 6 7 8 9 10 10 10 10 9 9 9 9 8
3 5 5 5 4 4 5 5 4 4 3 4 3 2 1 1 1 2 2 2 2 2 2 2 1 2 3 4 4 5 6 7 8 9 9 10 10 10 10 10 10 9 9
2 3 4 5 4 4 5 5 5 5 4 3 3 3 3 2 2 2 2 2 2 2 2 2 1 2 3 4 4 6 6 7 8 8 8 9 10 10 11 11 11 9 8
2 4 4 4 4 4 5 4 4 4 4 4 3 3 3 3 2 2 2 1 2 2 2 2 2 2 3 3 4 6 6 7 8 8 8 8 9 9 10 11 11 9 9
3 4 4 4 5 5 5 4 4 4 4 4 3 3 2 2 2 3 3 2 1 2 2 3 2 2 2 3 5 6 6 7 8 8 8 9 8 9 9 10 10 9 9
3 3 3 4 4 5 5 5 4 4 4 4 4 3 3 2 2 2 2 3 3 2 3 3 2 2 3 4 6 5 6 7 8 8 8 8 8 8 9 9 9 9 9
3 4 4 4 4 4 5 5 4 3 4 4 3 4 3 2 2 2 2 2 2 3 3 2 2 2 3 5 7 6 7 8 8 9 8 8 8 8 8 8 8 9 9
4 5 5 5 4 4 4 5 4 4 4 4 3 4 4 3 2 2 2 2 2 2 3 3 2 2 2 3 5 6 6 6 7 9 9 8 8 8 8 8 8 9 9
4 5 5 5 5 5 5 6 5 5 5 5 5 5 5 3 3 3 2 2 2 2 2 4 3 2 3 3 3 4 5 6 6 8 9 8 8 8 8 8 8 8 8
5 5 5 6 5 5 5 5 5 5 5 6 6 6 5 5 5 3 3 3 2 2 2 2 3 2 2 2 3 4 4 4 6 7 8 8 8 8 8 8 8 8 8
5 5 5 5 5 5 5 5 5 5 5 5 5 5 5 6 6 5 4 3 3 2 2 2 2 2 2 2 1 3 4 3 4 5 7 7 8 7 7 7 7 8 9
4 4 4 4 4 4 5 5 5 5 5 5 4 5 5 6 6 5 4 4 4 3 2 2 2 2 2 1 2 2 3 4 4 3 4 4 4 4 5 6 7 8 9
3 3 4 4 4 4 6 7 5 5 5 5 5 4 4 5 6 6 6 5 5 4 4 3 3 3 4 3 2 2 2 3 4 2 3 5 3 3 4 5 8 9 9
3 3 3 4 5 5 6 7 6 5 5 5 5 4 3 4 5 3 5 5 6 6 6 5 5 6 5 4 3 3 3 3 4 3 3 4 3 4 5 7 9 8 9
3 3 3 4 4 5 6 7 6 4 4 4 5 5 5 4 4 4 3 3 4 4 5 4 5 6 5 4 4 4 4 3 4 3 2 3 3 4 5 6 8 8 9
3 3 3 3 4 5 6 7 6 4 4 4 4 5 5 5 5 5 4 3 3 3 4 5 6 5 5 5 3 1 1 2 3 3 1 1 2 4 4 4 6 8 9
3 3 3 3 4 4 6 7 6 4 4 3 3 4 5 5 5 5 4 4 4 4 2 2 2 3 3 3 4 3 3 2 2 3 2 1 2 2 3 3 3 5 7
Wind_Direction
144 140 135 133 134 137 137 121 111 102 105 123 127 125 119 125 130 123 118 110 119 118 108 79 125 74 37 17 44 42 25 14 5 345 337 338 334 328 323 319 320 324 324
151 153 148 144 145 154 151 145 138 128 119 111 112 122 143 147 137 124 124 113 105 117 270 299 289 311 315 6 27 25 5 350 341 338 333 332 331 325 317 311 308 308 311
157 153 156 162 159 147 134 123 116 111 115 111 109 95 122 144 147 139 132 119 81 50 45 326 326 327 350 356 350 348 349 341 330 325 320 320 321 320 319 317 312 308 307
160 151 156 167 153 140 131 129 129 116 115 124 114 76 85 101 128 128 127 125 106 89 40 354 354 346 355 356 345 335 328 327 324 320 315 313 312 311 310 312 311 311 307
163 153 159 159 146 135 138 146 133 124 125 111 101 61 56 72 101 107 109 118 119 123 121 41 12 353 340 337 336 330 323 316 317 317 315 311 308 307 305 304 305 304 302
163 152 152 151 142 142 146 142 132 118 128 122 79 41 14 4 59 103 122 101 94 123 127 93 1 333 328 322 326 325 319 318 316 312 310 307 306 307 303 301 303 302 301
163 156 154 154 152 163 166 152 134 120 110 115 88 40 12 9 26 43 83 85 64 55 73 52 6 335 326 326 324 320 316 315 314 311 305 304 303 303 300 294 296 295 297
167 167 164 169 166 161 153 148 137 135 133 128 127 121 19 347 356 10 23 68 52 48 42 5 340 328 324 327 322 323 320 318 317 316 314 311 305 301 299 293 290 290 294
172 173 171 169 170 166 170 170 158 155 163 168 146 151 162 208 271 329 338 359 3 19 7 341 317 314 307 308 308 313 316 314 315 315 315 315 311 306 303 298 294 292 294
171 172 171 169 171 171 170 178 171 165 160 171 185 131 153 157 167 242 314 319 321 313 315 323 314 301 297 298 302 305 311 315 316 315 314 314 314 311 304 302 296 292 294
172 170 172 172 175 179 177 176 170 167 170 175 176 167 123 106 158 176 231 286 318 296 284 278 273 281 292 294 292 295 305 313 314 316 318 318 316 314 308 304 301 294 294
189 183 175 176 179 182 181 179 178 172 175 173 173 169 168 169 185 175 209 252 275 283 288 277 259 270 293 299 294 302 305 311 314 318 321 321 319 315 310 306 303 295 295
209 207 194 186 184 186 183 179 177 177 175 176 181 186 188 191 180 177 183 230 268 283 290 278 256 267 294 307 309 311 308 312 311 315 320 319 319 322 315 309 305 299 298
209 202 195 189 184 183 179 176 180 184 178 182 190 190 194 204 188 178 178 175 262 292 280 267 284 261 299 310 311 318 312 313 313 315 316 315 314 319 320 316 311 305 301
200 186 192 190 187 183 179 177 190 192 181 188 194 196 203 208 201 191 180 175 181 237 261 253 271 286 303 306 312 317 309 311 315 316 319 318 314 314 317 317 314 310 305
196 182 190 191 190 188 182 182 191 193 186 196 196 193 207 207 201 198 183 187 190 206 243 251 255 282 297 302 306 310 303 311 311 314 316 317 317 312 317 319 318 318 314
194 192 197 197 199 199 192 190 195 193 195 204 201 202 213 201 199 210 191 184 196 197 245 275 273 285 284 294 310 308 303 302 305 310 310 312 315 317 317 321 321 318 314
197 197 194 197 200 200 200 195 198 199 202 207 208 207 215 207 205 212 206 202 208 209 222 265 281 275 273 279 298 302 312 310 303 309 311 312 315 317 320 323 324 328 326
193 191 191 197 199 201 203 202 201 204 208 212 209 208 213 206 213 212 211 215 216 225 223 241 264 272 281 289 312 310 312 312 308 310 311 310 310 312 314 318 321 323 324
194 192 195 196 197 198 203 202 203 206 210 216 215 212 212 210 212 208 212 216 213 214 217 230 256 273 277 288 301 312 318 322 317 314 314 309 306 311 312 313 317 321 323
200 194 194 196 197 200 203 198 203 206 206 213 221 223 221 217 219 216 214 208 201 207 213 229 246 266 273 277 275 281 299 315 308 303 317 315 311 311 312 311 312 318 318
196 195 201 201 207 215 214 210 206 203 206 208 218 226 229 225 229 231 231 224 211 208 213 220 235 246 249 247 263 270 287 312 298 309 325 309 312 303 298 294 305 313 316
194 205 216 209 216 220 218 216 214 203 205 208 209 213 230 240 229 217 234 237 235 231 222 216 228 237 238 232 236 258 265 269 270 287 313 298 312 303 303 305 307 313 318
197 206 216 215 218 226 222 220 217 210 207 210 215 216 222 231 229 213 211 225 231 235 241 232 225 234 235 230 225 236 248 279 284 283 280 279 303 303 309 309 316 323 325
207 210 210 213 220 235 226 219 212 205 209 219 226 224 220 222 230 224 212 221 239 259 265 258 257 256 253 247 232 196 248 294 292 284 261 264 288 307 306 302 312 324 328
211 209 215 222 226 232 228 218 210 200 207 219 228 231 231 226 230 227 211 208 228 245 239 268 275 272 264 249 241 231 212 239 275 273 248 259 288 322 310 297 306 322 329
Height
1524 1525 1526 1528 1528 1529 1530 1530 1531 1532 1533 1534 1534 1535 1535 1536 1536 1536 1537 1537 1537 1537 1537 1536 1536 1536 1535 1534 1534 1533 1533 1532 1531 1530 1530 1529 1528 1527 1526 1525 1524 1524 1523
1522 1523 1524 1525 1526 1527 1528 1529 1529 1530 1531 1531 1532 1533 1533 1534 1534 1535 1535 1535 1535 1535 1535 1535 1534 1534 1533 1533 1532 1532 1531 1530 1529 1528 1527 1526 1526 1525 1524 1523 1522 1521 1520
1520 1521 1522 1523 1524 1525 1526 1526 1527 1528 1529 1529 1530 1530 1531 1531 1532 1533 1533 1533 1533 1533 1533 1533 1532 1532 1532 1531 1530 1530 1529 1528 1527 1527 1526 1525 1524 1522 1521 1521 1520 1519 1518
1517 1519 1520 1521 1522 1523 1523 1524 1524 1525 1526 1527 1528 1528 1529 1529 1530 1530 1531 1531 1531 1531 1531 1531 1530 1530 1530 1529 1528 1528 1527 1526 1525 1524 1523 1522 1521 1520 1519 1518 1517 1516 1515
1515 1516 1517 1518 1519 1520 1521 1521 1522 1523 1524 1524 1525 1526 1527 1527 1528 1528 1529 1529 1529 1529 1529 1529 1528 1528 1527 1527 1526 1525 1525 1524 1523 1522 1521 1520 1518 1517 1516 1515 1514 1513 1512
1512 1513 1515 1516 1517 1518 1518 1519 1520 1521 1521 1522 1523 1524 1525 1525 1525 1526 1526 1526 1526 1526 1526 1526 1526 1525 1525 1524 1524 1523 1522 1521 1520 1519 1518 1517 1515 1514 1513 1512 1511 1510 1509
1509 1510 1512 1513 1514 1515 1516 1516 1517 1518 1519 1519 1520 1521 1522 1522 1523 1523 1524 1524 1524 1524 1524 1524 1523 1523 1522 1522 1521 1520 1519 1518 1517 1516 1515 1513 1512 1511 1509 1508 1507 1507 1506
1506 1508 1509 1510 1511 1512 1513 1514 1514 1515 1516 1517 1518 1519 1520 1521 1520 1520 1521 1521 1521 1521 1521 1521 1521 1520 1519 1519 1518 1517 1516 1515 1514 1513 1512 1510 1509 1507 1506 1505 1504 1504 1503
1503 1505 1506 1507 1508 1509 1510 1511 1512 1512 1513 1515 1516 1517 1517 1516 1517 1518 1518 1519 1519 1519 1519 1519 1518 1517 1517 1516 1515 1514 1513 1512 1511 1510 1508 1506 1505 1503 1502 1501 1501 1500 1499
1500 1501 1503 1504 1505 1507 1507 1508 1509 1510 1511 1512 1513 1514 1515 1514 1515 1514 1515 1516 1516 1516 1516 1515 1515 1514 1514 1513 1512 1511 1510 1508 1507 1506 1504 1502 1501 1499 1499 1498 1497 1496 1495
1497 1498 1500 1501 1502 1504 1504 1506 1507 1508 1508 1509 1510 1510 1511 1511 1512 1512 1511 1512 1512 1513 1513 1512 1512 1511 1511 1510 1508 1507 1507 1505 1504 1502 1500 1499 1497 1496 1495 1494 1493 1492 1491
1493 1495 1496 1498 1499 1500 1501 1502 1504 1504 1505 1506 1507 1507 1508 1508 1508 1509 1508 1508 1508 1509 1509 1509 1509 1508 1507 1506 1505 1504 1503 1502 1500 1499 1497 1495 1494 1492 1491 1490 1489 1488 1487
1489 1491 1493 1494 1496 1497 1498 1499 1500 1501 1502 1502 1503 1504 1504 1505 1506 1506 1506 1505 1505 1505 1505 1505 1505 1505 1504 1503 1502 1501 1500 1498 1497 1495 1493 1492 1490 1489 1487 1486 1485 1484 1483
1486 1488 1490 1491 1492 1493 1494 1496 1496 1497 1498 1499 1500 1500 1501 1502 1502 1503 1503 1503 1502 1501 1501 1502 1502 1502 1501 1500 1499 1498 1496 1495 1493 1492 1490 1488 1486 1485 1483 1482 1481 1480 1479
1483 1485 1486 1487 1489 1490 1491 1492 1493 1493 1494 1495 1496 1497 1497 1498 1499 1499 1500 1500 1501 1499 1497 1497 1498 1498 1497 1496 1495 1494 1493 1491 1490 1488 1486 1484 1483 1481 1480 1478 1477 1476 1475
1479 1481 1482 1484 1485 1486 1487 1488 1489 1490 1490 1491 1492 1493 1494 1494 1495 1496 1496 1496 1497 1497 1495 1494 1494 1494 1494 1493 1492 1491 1490 1488 1486 1485 1483 1481 1479 1478 1476 1475 1474 1472 1471
1475 1477 1478 1480 1481 1482 1483 1484 1485 1486 1487 1488 1489 1489 1490 1491 1491 1492 1492 1492 1493 1493 1492 1491 1491 1491 1490 1489 1488 1487 1486 1484 1482 1481 1479 1478 1476 1474 1473 1471 1470 1468 1466
1472 1473 1474 1476 1476 1477 1479 1480 1481 1482 1483 1484 1485 1485 1486 1487 1487 1488 1489 1488 1489 1489 1489 1487 1487 1487 1486 1485 1484 1483 1482 1480 1479 1477 1476 1474 1473 1471 1469 1468 1466 1464 1463
1468 1469 1470 1472 1473 1473 1475 1476 1477 1478 1479 1480 1481 1482 1482 1483 1483 1484 1485 1485 1485 1485 1485 1484 1483 1483 1482 1481 1480 1479 1478 1477 1475 1474 1472 1471 1470 1468 1466 1465 1463 1462 1460
1464 1465 1466 1467 1468 1470 1471 1472 1473 1474 1475 1476 1477 1478 1478 1479 1479 1480 1480 1481 1481 1481 1481 1480 1479 1479 1478 1478 1477 1476 1474 1473 1472 1471 1469 1468 1466 1465 1463 1462 1460 1459 1457
1460 1462 1463 1464 1464 1465 1467 1468 1469 1470 1471 1472 1473 1474 1474 1475 1476 1476 1477 1477 1477 1477 1477 1476 1475 1475 1474 1474 1473 1472 1471 1470 1468 1467 1466 1464 1463 1461 1460 1458 1457 1455 1453
1457 1458 1459 1460 1460 1461 1463 1464 1465 1466 1467 1468 1468 1469 1470 1471 1472 1472 1473 1473 1474 1474 1473 1473 1472 1471 1470 1470 1470 1469 1468 1466 1464 1465 1463 1461 1460 1458 1456 1455 1453 1452 1450
1454 1454 1455 1456 1457 1458 1459 1460 1461 1462 1463 1464 1464 1465 1466 1467 1467 1468 1468 1469 1469 1469 1469 1469 1468 1467 1467 1467 1467 1465 1465 1463 1462 1461 1460 1457 1456 1455 1453 1451 1450 1448 1446
1450 1451 1452 1452 1453 1454 1455 1456 1457 1458 1459 1460 1460 1461 1462 1462 1463 1463 1464 1464 1464 1464 1465 1465 1464 1464 1464 1464 1463 1463 1462 1460 1459 1458 1457 1455 1453 1451 1450 1448 1447 1445 1443
1446 1447 1448 1449 1449 1450 1451 1452 1453 1454 1455 1455 1456 1457 1458 1458 1459 1460 1460 1460 1460 1460 1460 1460 1460 1460 1460 1460 1460 1459 1458 1457 1455 1454 1454 1452 1450 1448 1446 1445 1444 1442 1440
1443 1443 1444 1445 1446 1446 1447 1448 1449 1450 1450 1451 1452 1452 1453 1454 1455 1455 1456 1456 1456 1456 1456 1456 1456 1456 1456 1456 1456 1455 1455 1454 1453 1452 1450 1450 1448 1446 1443 1441 1441 1439 1437